Regional Weather Roundup
Issued by NWS

Home | Current Version | Previous Version | Text Only | Print | Product List | Glossary Off
Versions: 1 2 3 4 5 6 7 8 9 10 11 12 13 14 15 16 17 18 19 20 21 22 23 24 25 26 27 28 29 30 31 32 33 34 35 36 37 38 39 40 41 42 43 44 45 46 47 48 49 50

000
ASUS43 KLSX 261557
RWRMO

WEATHER SUMMARY FOR MISSOURI
NATIONAL WEATHER SERVICE SPRINGFIELD MO
1100 AM CDT THU MAY 26 2016

NOTE: "FAIR" INDICATES FEW OR NO CLOUDS BELOW 12,000 FEET WITH NO
       SIGNIFICANT WEATHER AND/OR OBSTRUCTIONS TO VISIBILITY.
       CURRENT SKY AND/OR WEATHER CONDITIONS ARE NOT AVAILABLE FOR
       CHILLICOTHE AND FARMINGTON.

MOZ001>031-035>038-043-044-053-054-261700-
...NORTHERN AND WESTERN MISSOURI...

CITY           SKY/WX    TMP DP  RH WIND       PRES   REMARKS
KANSAS CTY INT LGT RAIN  68  65  90 SE20      29.87F
LEE`S SUMMIT   CLOUDY    73  61  65 NE7       29.92R THUNDER
ST JOSEPH      LGT RAIN  69  64  84 SE5       29.87F
CHILLICOTHE      N/A     74  64  71 VRB3      29.91R

$$
MOZ066>068-077>081-088>096-101>105-261700-
...SOUTHWEST MISSOURI...

CITY           SKY/WX    TMP DP  RH WIND       PRES   REMARKS
SPRINGFIELD    CLOUDY    77  65  66 E7        29.97S
JOPLIN         MOSUNNY   83  73  72 S14       29.91F
BRANSON        CLOUDY    79  73  83 CALM      30.00S

$$
MOZ032>034-039>042-045>050-055>058-069>072-261700-
...CENTRAL MISSOURI...

CITY           SKY/WX    TMP DP  RH WIND       PRES   REMARKS
COLUMBIA       NOT AVBL
JEFFERSON CITY CLOUDY    76  69  79 SE8       29.90F
ROLLA          CLOUDY    69  67  93 SE17      29.97F
SEDALIA        SUNNY     80  66  62 SW9       29.92F
WARRENSBURG    SUNNY     79  68  69 S6        29.90R

$$
MOZ051-052-059>065-261700-
...EAST CENTRAL MISSOURI...

CITY           SKY/WX    TMP DP  RH WIND       PRES   REMARKS
ST LOUIS INTL  PTSUNNY   75  66  73 S9        29.97S

$$
MOZ072>076-082>087-097>100-106>115-261700-
...SOUTH CENTRAL AND SOUTHEAST MISSOURI...

CITY           SKY/WX    TMP DP  RH WIND       PRES   REMARKS
CAPE GIRARDEAU CLOUDY    77  71  82 S10G20    30.01F
POPLAR BLUFF   LGT RAIN  78  73  84 S15       29.98F
WEST PLAINS    PTSUNNY   80  72  76 SE8       30.01S

$$



USA.gov is the U.S. government's official web portal to all federal, state and local government web resources and services.